SWR54B LSZH-KBOS

Flight info

Callsign SWR54B
Flight time N/A
Altitude 38000
Route VEBIT T10 TORPA DCT REKLA DCT RLP DCT ROTSI DCT AMODO DCT COHPA UM729 RESMI UN491 LGL UN502 JSY DCT LIZAD DCT LULOX/M084F380 DCT DINIM/M084F390 NATF MUSAK/N0475F400 N296B TUSKY DCT EURRO OOSHN5
Aircraft A359/H-SABCDE2E3GHIJ1J4J5LM1OP2RWXYZ/CLB1D1

Departure

Time N/A
Airport Zürich Airport (LSZH)

Arrival

Time 2026-05-06 20:22
Airport Boston Logan International Airport (KBOS)
Time Latitude Longitude Altitude Speed Heading
2026-05-06 19:49 43.35993 -67.72592 39944 ft 408 kts 251°
2026-05-06 19:49 43.33910 -67.79847 39943 ft 408 kts 251°
2026-05-06 19:50 43.31836 -67.87054 39945 ft 407 kts 251°
2026-05-06 19:50 43.29769 -67.94216 39943 ft 407 kts 251°
2026-05-06 19:51 43.27779 -68.01089 39933 ft 407 kts 251°
2026-05-06 19:51 43.25698 -68.08259 39932 ft 404 kts 251°
2026-05-06 19:52 43.23613 -68.15418 39934 ft 402 kts 251°
2026-05-06 19:53 43.19698 -68.28815 39906 ft 403 kts 251°
2026-05-06 19:53 43.17269 -68.37093 39906 ft 403 kts 251°
2026-05-06 19:54 43.15169 -68.44224 39882 ft 403 kts 251°
2026-05-06 19:54 43.13080 -68.51299 39878 ft 402 kts 251°
2026-05-06 19:55 43.10975 -68.58411 39630 ft 405 kts 251°
2026-05-06 19:55 43.10271 -68.60784 39470 ft 405 kts 251°
2026-05-06 19:55 43.08863 -68.65524 39105 ft 402 kts 251°
2026-05-06 19:56 43.07809 -68.69063 38559 ft 399 kts 251°
2026-05-06 19:56 43.07114 -68.71396 38157 ft 399 kts 251°
2026-05-06 19:56 43.05723 -68.76065 37289 ft 400 kts 251°
2026-05-06 19:56 43.04669 -68.79594 36619 ft 401 kts 250°
2026-05-06 19:57 43.03953 -68.81989 36158 ft 401 kts 250°
2026-05-06 19:57 43.02905 -68.85489 35468 ft 403 kts 250°
2026-05-06 19:57 43.01845 -68.89025 34932 ft 401 kts 249°
2026-05-06 19:57 43.00789 -68.92543 34418 ft 398 kts 249°
2026-05-06 19:58 42.99738 -68.96037 33902 ft 396 kts 249°
2026-05-06 19:58 42.98690 -68.99516 33370 ft 394 kts 249°
2026-05-06 19:58 42.97646 -69.02980 32852 ft 392 kts 249°
2026-05-06 19:58 42.96621 -69.06376 32340 ft 389 kts 248°
2026-05-06 19:59 42.95590 -69.09787 31826 ft 387 kts 248°
2026-05-06 19:59 42.94560 -69.13193 31303 ft 385 kts 248°
2026-05-06 19:59 42.93549 -69.16527 30807 ft 382 kts 248°
2026-05-06 19:59 42.92536 -69.19868 30291 ft 380 kts 248°
2026-05-06 20:00 42.91526 -69.23190 29782 ft 377 kts 247°
2026-05-06 20:00 42.90523 -69.26489 29276 ft 375 kts 247°
2026-05-06 20:00 42.89526 -69.29763 28762 ft 372 kts 247°
2026-05-06 20:00 42.88533 -69.33018 28257 ft 369 kts 247°
2026-05-06 20:01 42.87556 -69.36220 27758 ft 369 kts 246°
2026-05-06 20:01 42.86572 -69.39440 27252 ft 366 kts 246°
2026-05-06 20:01 42.85592 -69.42639 26735 ft 364 kts 246°
2026-05-06 20:01 42.84619 -69.45816 26225 ft 362 kts 246°
2026-05-06 20:02 42.83646 -69.48985 25713 ft 360 kts 246°
2026-05-06 20:02 42.82680 -69.52129 25198 ft 358 kts 245°
2026-05-06 20:02 42.81730 -69.55220 24669 ft 357 kts 245°
2026-05-06 20:02 42.80769 -69.58339 24144 ft 355 kts 245°
2026-05-06 20:03 42.79816 -69.61431 23627 ft 353 kts 245°
2026-05-06 20:03 42.78864 -69.64515 23103 ft 351 kts 245°
2026-05-06 20:03 42.77930 -69.67539 22583 ft 349 kts 245°
2026-05-06 20:03 42.76987 -69.70586 22057 ft 348 kts 245°
2026-05-06 20:04 42.76047 -69.73620 21530 ft 346 kts 245°
2026-05-06 20:04 42.75111 -69.76639 21003 ft 344 kts 244°
2026-05-06 20:04 42.74190 -69.79605 20483 ft 342 kts 244°
2026-05-06 20:04 42.73267 -69.82575 19961 ft 340 kts 244°
2026-05-06 20:05 42.72350 -69.85523 19442 ft 337 kts 244°
2026-05-06 20:05 42.71438 -69.88450 18916 ft 334 kts 244°
2026-05-06 20:05 42.70536 -69.91345 18398 ft 331 kts 244°
2026-05-06 20:05 42.69635 -69.94230 17880 ft 328 kts 244°
2026-05-06 20:06 42.68745 -69.97079 17369 ft 326 kts 244°
2026-05-06 20:06 42.67862 -69.99900 16859 ft 323 kts 243°
2026-05-06 20:06 42.67000 -70.02653 16380 ft 319 kts 243°
2026-05-06 20:06 42.66131 -70.05425 15863 ft 316 kts 243°
2026-05-06 20:07 42.65270 -70.08172 15383 ft 312 kts 243°
2026-05-06 20:07 42.64434 -70.10789 15225 ft 298 kts 242°
2026-05-06 20:07 42.63575 -70.13285 15092 ft 284 kts 241°
2026-05-06 20:07 42.62747 -70.15660 14958 ft 271 kts 240°
2026-05-06 20:08 42.61954 -70.17939 14804 ft 261 kts 240°
2026-05-06 20:08 42.61193 -70.20132 14488 ft 258 kts 240°
2026-05-06 20:08 42.60469 -70.22356 14168 ft 257 kts 245°
2026-05-06 20:08 42.59986 -70.24690 13788 ft 259 kts 253°
2026-05-06 20:09 42.59806 -70.27144 13203 ft 269 kts 261°
2026-05-06 20:09 42.59778 -70.29702 12733 ft 270 kts 262°
2026-05-06 20:09 42.59796 -70.32261 12291 ft 268 kts 263°
2026-05-06 20:09 42.59831 -70.34741 11665 ft 265 kts 263°
2026-05-06 20:10 42.59870 -70.37240 10973 ft 263 kts 263°
2026-05-06 20:10 42.59912 -70.39729 10254 ft 263 kts 263°
2026-05-06 20:10 42.59956 -70.42184 9515 ft 263 kts 263°
2026-05-06 20:10 42.59997 -70.44673 9066 ft 264 kts 263°
2026-05-06 20:11 42.60042 -70.47143 8562 ft 262 kts 264°
2026-05-06 20:11 42.60097 -70.49579 8370 ft 254 kts 264°
2026-05-06 20:11 42.60144 -70.51982 8235 ft 255 kts 264°
2026-05-06 20:11 42.60178 -70.54401 8015 ft 256 kts 264°
2026-05-06 20:12 42.60214 -70.56827 7761 ft 256 kts 263°
2026-05-06 20:12 42.60251 -70.59218 7501 ft 257 kts 263°
2026-05-06 20:12 42.60295 -70.61629 7260 ft 253 kts 264°
2026-05-06 20:12 42.60336 -70.63964 7124 ft 242 kts 263°
2026-05-06 20:13 42.60374 -70.66203 6984 ft 231 kts 263°
2026-05-06 20:13 42.60415 -70.68340 6866 ft 221 kts 263°
2026-05-06 20:13 42.60453 -70.70400 6734 ft 217 kts 262°
2026-05-06 20:13 42.60460 -70.72438 6374 ft 214 kts 257°
2026-05-06 20:14 42.60316 -70.74466 5754 ft 223 kts 255°
2026-05-06 20:14 42.60107 -70.76604 5146 ft 232 kts 254°
2026-05-06 20:14 42.59858 -70.78806 4578 ft 238 kts 254°
2026-05-06 20:14 42.59599 -70.81017 4239 ft 233 kts 254°
2026-05-06 20:15 42.59349 -70.83141 4074 ft 222 kts 253°
2026-05-06 20:15 42.59124 -70.85118 3989 ft 206 kts 253°
2026-05-06 20:15 42.58888 -70.86955 3986 ft 186 kts 248°
2026-05-06 20:15 42.58441 -70.88489 3979 ft 164 kts 234°
2026-05-06 20:16 42.57768 -70.89661 3991 ft 156 kts 220°
2026-05-06 20:16 42.56876 -70.90492 4001 ft 156 kts 207°
2026-05-06 20:16 42.55884 -70.91061 3899 ft 150 kts 204°
2026-05-06 20:16 42.54932 -70.91557 3717 ft 143 kts 203°
2026-05-06 20:17 42.54008 -70.92013 3482 ft 140 kts 202°
2026-05-06 20:17 42.53103 -70.92451 3274 ft 137 kts 202°
2026-05-06 20:17 42.52213 -70.92886 3089 ft 137 kts 202°
2026-05-06 20:17 42.51316 -70.93321 2899 ft 137 kts 202°
2026-05-06 20:18 42.50411 -70.93763 2736 ft 140 kts 201°
2026-05-06 20:18 42.49480 -70.94218 2525 ft 144 kts 199°
2026-05-06 20:18 42.48515 -70.94684 2342 ft 149 kts 200°
2026-05-06 20:18 42.47538 -70.95160 2137 ft 150 kts 199°
2026-05-06 20:19 42.46558 -70.95633 1956 ft 151 kts 199°
2026-05-06 20:19 42.45565 -70.96115 1744 ft 151 kts 200°
2026-05-06 20:19 42.44597 -70.96587 1528 ft 144 kts 199°
2026-05-06 20:19 42.43691 -70.97025 1347 ft 133 kts 198°
2026-05-06 20:20 42.42853 -70.97429 1172 ft 123 kts 198°
2026-05-06 20:20 42.42058 -70.97813 1019 ft 122 kts 197°
2026-05-06 20:20 42.41261 -70.98203 854 ft 122 kts 199°
2026-05-06 20:20 42.40464 -70.98602 687 ft 122 kts 198°
2026-05-06 20:21 42.39660 -70.98979 536 ft 123 kts 198°
2026-05-06 20:21 42.38863 -70.99368 372 ft 123 kts 199°
2026-05-06 20:21 42.38062 -70.99757 214 ft 122 kts 198°
2026-05-06 20:21 42.37273 -71.00138 52 ft 119 kts 199°
2026-05-06 20:22 42.36550 -71.00485 32 ft 94 kts 199°
2026-05-06 20:22 42.36132 -71.00687 32 ft 30 kts 198°
2026-05-06 20:22 42.35988 -71.00807 33 ft 23 kts 226°
2026-05-06 20:22 42.35894 -71.00952 31 ft 14 kts 229°
2026-05-06 20:23 42.35840 -71.01047 32 ft 9 kts 242°
2026-05-06 20:23 42.35834 -71.01131 32 ft 10 kts 271°
2026-05-06 20:23 42.35844 -71.01234 32 ft 12 kts 277°
2026-05-06 20:23 42.35856 -71.01357 32 ft 14 kts 278°
2026-05-06 20:24 42.35875 -71.01494 32 ft 14 kts 289°
2026-05-06 20:24 42.35955 -71.01517 32 ft 14 kts 17°
2026-05-06 20:24 42.36053 -71.01469 32 ft 16 kts 20°
2026-05-06 20:24 42.36170 -71.01413 32 ft 19 kts 19°
2026-05-06 20:25 42.36302 -71.01350 32 ft 21 kts 19°
2026-05-06 20:25 42.36449 -71.01279 32 ft 23 kts 20°
2026-05-06 20:25 42.36598 -71.01207 32 ft 23 kts 19°
2026-05-06 20:25 42.36751 -71.01143 32 ft 19 kts 360°
2026-05-06 20:26 42.36858 -71.01237 32 ft 20 kts 314°
2026-05-06 20:26 42.36960 -71.01375 32 ft 22 kts 315°
2026-05-06 20:26 42.37071 -71.01525 32 ft 23 kts 315°
2026-05-06 20:26 42.37141 -71.01625 32 ft 11 kts 296°
2026-05-06 20:27 42.37132 -71.01733 32 ft 12 kts 264°
2026-05-06 20:27 42.37167 -71.01842 32 ft 14 kts 304°
2026-05-06 20:27 42.37208 -71.01927 32 ft 10 kts 303°
2026-05-06 20:27 42.37235 -71.02016 32 ft 11 kts 277°
2026-05-06 20:28 42.37225 -71.02089 32 ft 6 kts 224°
2026-05-06 20:28 42.37194 -71.02093 32 ft 5 kts 173°
2026-05-06 20:28 42.37158 -71.02089 32 ft 4 kts 175°
2026-05-06 20:28 42.37149 -71.02088 32 ft 1 kts 176°
2026-05-06 20:29 42.37143 -71.02087 32 ft 0 kts 176°